User: anonymous   Login
Location: Deer Lodge Site
(39.6809°N, 119.9392°W)
Time: 20:17:16
(UTC-08:00)
Language:

CZ-4C R/B - Orbit

View from above orbital plane
View from above orbital plane
View from above satellite
View from above satellite

Ground track
Ground track

The orbit data is extracted from the following two-line orbital elements,

1 36416U 10009D   15028.22367237 -.00000009  00000-0  72853-4 0  8121
2 36416 063.4477 077.7545 0302040 359.4450 000.6211 13.69447184245094
Epoch (UTC): 28 January 2015 05:22:05
Eccentricity: 0.0302040
inclination: 63.4477°
perigee height: 778 km
apogee height: 1224 km
right ascension of ascending node: 77.7545°
argument of perigee: 359.4450°
revolutions per day: 13.69447184
mean anomaly at epoch: 0.6211°
orbit number at epoch: 24509

The dashed part of the orbit path shows where the satellite is in the earth's shadow,  

DLR